TimeCST,TemperatureF,Dew PointF,Humidity,Sea Level PressureIn,VisibilityMPH,Wind Direction,Wind SpeedMPH,Gust SpeedMPH,PrecipitationIn,Events,Conditions,WindDirDegrees,DateUTC
12:56 AM,-9999,-9999,N/A,30.47,10.0,Calm,Calm,-,N/A,,Clear,0,2013-01-18 06:56:00
1:56 AM,-9999,-9999,N/A,30.47,10.0,NNW,3.5,-,N/A,,Clear,330,2013-01-18 07:56:00
2:56 AM,-9999,-9999,N/A,30.47,10.0,North,4.6,-,N/A,,Clear,350,2013-01-18 08:56:00
3:56 AM,-9999,-9999,N/A,30.47,10.0,North,6.9,-,N/A,,Clear,10,2013-01-18 09:56:00
4:56 AM,-9999,-9999,N/A,30.47,10.0,North,6.9,-,N/A,,Clear,360,2013-01-18 10:56:00
5:56 AM,50.5,40.6,69,30.45,10.0,North,9.2,-,N/A,,Partly Cloudy,360,2013-01-18 11:56:00
6:56 AM,49.8,41.7,74,30.46,10.0,North,10.4,-,N/A,,Mostly Cloudy,10,2013-01-18 12:56:00
7:56 AM,49.1,41.2,74,30.48,10.0,North,5.8,-,N/A,,Mostly Cloudy,10,2013-01-18 13:56:00
8:56 AM,49.8,43.0,77,30.50,10.0,North,5.8,-,N/A,,Scattered Clouds,350,2013-01-18 14:56:00
9:56 AM,55.4,44.6,67,30.51,10.0,North,6.9,-,N/A,,Scattered Clouds,360,2013-01-18 15:56:00
10:56 AM,59.0,44.6,59,30.51,10.0,NE,5.8,-,N/A,,Scattered Clouds,40,2013-01-18 16:56:00
11:56 AM,64.0,48.0,56,30.47,10.0,NE,9.2,-,N/A,,Scattered Clouds,40,2013-01-18 17:56:00
12:56 PM,68.0,48.0,49,30.42,10.0,NE,12.7,-,N/A,,Scattered Clouds,50,2013-01-18 18:56:00
1:56 PM,71.1,46.9,42,30.39,10.0,ENE,12.7,-,N/A,,Scattered Clouds,70,2013-01-18 19:56:00
2:56 PM,68.4,45.0,43,30.37,10.0,East,12.7,-,N/A,,Scattered Clouds,100,2013-01-18 20:56:00
3:56 PM,65.7,46.0,49,30.36,10.0,East,11.5,-,N/A,,Scattered Clouds,80,2013-01-18 21:56:00
4:56 PM,62.4,45.0,53,30.36,10.0,East,9.2,-,N/A,,Scattered Clouds,80,2013-01-18 22:56:00
5:56 PM,61.5,48.9,63,30.37,10.0,East,8.1,-,N/A,,Scattered Clouds,90,2013-01-18 23:56:00
6:56 PM,57.6,48.9,73,30.37,10.0,East,8.1,-,N/A,,Scattered Clouds,90,2013-01-19 00:56:00
7:56 PM,-9999,-9999,N/A,30.38,10.0,East,5.8,-,N/A,,Clear,90,2013-01-19 01:56:00
8:56 PM,-9999,-9999,N/A,30.38,10.0,ENE,6.9,-,N/A,,Clear,70,2013-01-19 02:56:00
9:56 PM,-9999,-9999,N/A,30.37,10.0,ENE,5.8,-,N/A,,Clear,60,2013-01-19 03:56:00
10:56 PM,-9999,-9999,N/A,30.35,10.0,NE,5.8,-,N/A,,Clear,50,2013-01-19 04:56:00
11:56 PM,-9999,-9999,N/A,30.34,10.0,ENE,6.9,-,N/A,,Clear,60,2013-01-19 05:56:00